Home   Weather   Bystrc   Past weeks
Flag for Czech Republic

Past Weather in Bystrc, Czech Republic — Yesterday and Last 2 Weeks

Now
50 °F

Fog.


Feels Like: 50 °F
Forecast: 65 / 50 °F
Wind: 1 mph from Northeast

Location: Brno / Turany

Current Time: Oct 19, 2019 at 7:02:58 am

Latest Report: Oct 19, 2019 at 6:00 am


Visibility: 5 mi

Pressure: 30.01 "Hg

Humidity: 95%

Dew Point: 49 °F

Location of BystrcLocation

Past Weather in Bystrc — Graph

°F

Bystrc Temperature Yesterday

Maximum temperature yesterday: 57 °F (at 4:00 pm)
Minimum temperature yesterday: 49 °F (at 5:00 am)
Average temperature yesterday: 53 °F

High & Low Weather Summary for the Past Weeks

 TemperatureHumidityPressure
High70 °F (Oct 15, 2:00 pm)100% (Oct 12, 11:00 am)30.25 "Hg (Oct 12, 11:00 am)
Low33 °F (Oct 8, 4:00 am)50% (Oct 7, 4:00 pm)29.65 "Hg (Oct 5, 2:00 pm)
Average52 °F82%30.01 "Hg
* Reported Oct 4 5:00 am — Oct 19 5:00 am, Bystrc. Weather by CustomWeather, © 2019

Note: Actual official high and low records may vary slightly from our data, if they occured in-between our weather recording intervals... More about our weather records

Advertising

Bystrc Weather History for the Previous 24 Hours

Scroll right to see more
 ConditionsComfort  
Time TempWeatherWind HumidityBarometerVisibility
5:00 am
Sat, Oct 19
51 °FFog.1 mph93%30.00 "Hg6 mi
4:00 am51 °FFog.2 mph94%29.99 "Hg6 mi
3:00 am51 °FLow clouds.2 mph93%30.00 "Hg6 mi
2:00 am52 °FLow clouds.1 mph92%29.99 "Hg6 mi
1:00 am52 °FLow clouds.1 mph91%29.99 "Hg7 mi
12:00 am53 °FLow clouds.No wind91%29.99 "Hg6 mi
11:00 pm
Fri, Oct 18
53 °FLow clouds.1 mph93%29.99 "Hg6 mi
10:00 pm53 °FPassing clouds.2 mph92%29.99 "Hg7 mi
9:00 pm53 °FPassing clouds.3 mph93%29.99 "Hg7 mi
8:00 pm52 °FPassing clouds.3 mph93%29.98 "Hg7 mi
7:00 pm54 °FOvercast.2 mph91%29.98 "Hg11 mi
6:00 pm54 °FOvercast.2 mph86%29.98 "Hg12 mi
5:00 pm56 °FOvercast.3 mph81%29.97 "Hg12 mi
4:00 pm57 °FPartly sunny.2 mph81%29.96 "Hg11 mi
3:00 pm56 °FOvercast.2 mph88%29.98 "Hg9 mi
2:00 pm56 °FFog.1 mph88%29.99 "Hg5 mi
1:00 pm55 °FFog.2 mph92%30.01 "Hg4 mi
12:00 pm55 °FFog.1 mph90%30.03 "Hg4 mi
11:00 am54 °FFog.1 mph93%30.03 "Hg5 mi
10:00 am53 °FLow clouds.2 mph92%30.03 "Hg6 mi
9:00 am51 °FOvercast.1 mph92%30.03 "Hg7 mi
8:00 am50 °FOvercast.1 mph93%30.02 "Hg7 mi
7:00 am50 °FOvercast.1 mph93%30.01 "Hg12 mi
Weather by CustomWeather, © 2019

See weather overview